This demonstration page uses our WeatherBlox Daily Observations layout. Learn more.

Left ArrowRight Arrow

Hourly Observations for December 19, 2019

Temp ( °F °C ) Dew Point ( °F °C ) Humidity (%) Winds ( mph kmh ) Pressure ( in mb ) Visibility ( mi km ) Precip ( " mm )
12:52 am 00:52 Mostly Clear 24 -4.4 21 -6.1 88 88 SSE 10 17 30.13 1020 10 16 0.00 0.00
1:52 am 01:52 Mostly Clear 24 -4.4 21 -6.1 88 88 SSE 10 17 30.12 1020 10 16 0.00 0.00
2:52 am 02:52 Mostly Clear 23 -5 21 -6.1 92 92 SE 8 13 30.13 1020 10 16 0.00 0.00
3:52 am 03:52 Partly Cloudy 22 -5.6 20 -6.7 92 92 SSE 10 17 30.13 1020 10 16 0.00 0.00
4:52 am 04:52 Partly Cloudy 22 -5.6 20 -6.7 92 92 SSE 10 17 30.12 1020 10 16 0.00 0.00
5:52 am 05:52 Partly Cloudy 24 -4.4 21 -6.1 88 88 SSE 9 15 30.12 1020 10 16 0.00 0.00
6:52 am 06:52 Mostly Clear 25 -3.9 21 -6.1 85 85 SSE 9 15 30.13 1020 10 16 0.00 0.00
7:52 am 07:52 Partly Cloudy 21 -6.1 19 -7.2 92 92 SSE 7 11 30.14 1021 10 16 0.00 0.00
8:52 am 08:52 Mostly Cloudy 28 -2.2 24 -4.4 85 85 SSE 6 9 30.15 1021 10 16 0.00 0.00
9:52 am 09:52 Mostly Cloudy 31 -0.6 24 -4.4 76 76 SSE 9 15 30.16 1021 10 16 0.00 0.00
10:52 am 10:52 Mostly Cloudy 34 1.1 24 -4.4 67 67 SSE 9 15 30.16 1021 10 16 0.00 0.00
11:52 am 11:52 Mostly Cloudy 39 3.9 25 -3.9 57 57 S 8 13 30.13 1020 10 16 0.00 0.00
12:52 pm 12:52 Mostly Cloudy 42 5.6 26 -3.3 53 53 SSE 10 17 30.11 1020 10 16 0.00 0.00
1:52 pm 13:52 Mostly Cloudy 44 6.7 24 -4.4 45 45 S 12 19 30.09 1019 10 16 0.00 0.00
2:52 pm 14:52 Mostly Cloudy 45 7.2 26 -3.3 48 48 S 12 19 30.08 1019 10 16 0.00 0.00
3:52 pm 15:52 Mostly Cloudy 45 7.2 26 -3.3 48 48 SSE 14 22 30.07 1018 10 16 0.00 0.00
4:52 pm 16:52 Mostly Cloudy 42 5.6 27 -2.8 55 55 S 14 22 30.08 1019 10 16 0.00 0.00
5:52 pm 17:52 Mostly Cloudy 37 2.8 28 -2.2 70 70 SSE 12 19 30.10 1019 10 16 0.00 0.00
6:52 pm 18:52 Cloudy 38 3.3 27 -2.8 65 65 SSE 15 24 30.11 1020 10 16 0.00 0.00
7:52 pm 19:52 Cloudy 39 3.9 26 -3.3 60 60 S 15 24 30.12 1020 10 16 0.00 0.00
8:52 pm 20:52 Cloudy 37 2.8 26 -3.3 65 65 SSE 14 22 30.14 1021 10 16 0.00 0.00
9:52 pm 21:52 Cloudy 35 1.7 26 -3.3 70 70 SE 10 17 30.15 1021 10 16 0.00 0.00
10:52 pm 22:52 Mostly Cloudy 33 0.6 25 -3.9 72 72 SE 13 20 30.16 1022 10 16 0.00 0.00
11:52 pm 23:52 Cloudy 33 0.6 26 -3.3 75 75 SE 13 20 30.17 1022 10 16 0.00 0.00

Powered by AerisWeather